This is the latest recevied weather packets stored in our database for station/object WB4ZUT. If no packets are shown the sender has not sent any weather packets the latest 10 day(s).
| Time | Temp. | Humidity | Pressure | Rain* | Wind** | Luminosity | Snow |
|---|---|---|---|---|---|---|---|
| 1777546345 | 6.67° C | 87% | 1017.4 hPa | 0 mm | - | 0 W/m² | - |
| 1777546043 | 6.67° C | 88% | 1017.1 hPa | 0 mm | - | 0 W/m² | - |
| 1777545739 | 6.67° C | 88% | 1016.8 hPa | 0 mm | - | 0 W/m² | - |
| 1777545436 | 6.67° C | 88% | 1017 hPa | 0 mm | - | 0 W/m² | - |
| 1777545133 | 6.67° C | 87% | 1016.9 hPa | 0 mm | - | 0 W/m² | - |
| 1777544830 | 6.67° C | 87% | 1017 hPa | 0 mm | - | 0 W/m² | - |
| 1777544526 | 6.67° C | 88% | 1016.9 hPa | 0 mm | - | 0 W/m² | - |
| 1777544223 | 6.67° C | 88% | 1017.1 hPa | 0 mm | - | 0 W/m² | - |
| 1777543920 | 6.67° C | 88% | 1017 hPa | 0 mm | - | 0 W/m² | - |
| 1777543616 | 6.67° C | 88% | 1017.1 hPa | 0 mm | - | 0 W/m² | - |
| 1777543312 | 6.67° C | 89% | 1016.7 hPa | 0 mm | - | 0 W/m² | - |
| 1777543008 | 6.67° C | 89% | 1016.6 hPa | 0 mm | - | 0 W/m² | - |
| 1777542704 | 6.11° C | 89% | 1016.8 hPa | 0 mm | - | 0 W/m² | - |
| 1777542401 | 6.11° C | 89% | 1016.7 hPa | 0 mm | - | 0 W/m² | - |
| 1777542097 | 6.11° C | 88% | 1016.6 hPa | 0 mm | - | 0 W/m² | - |
| 1777541795 | 6.11° C | 87% | 1016.7 hPa | 0 mm | - | 0 W/m² | - |
| 1777541492 | 6.67° C | 87% | 1016.7 hPa | 0 mm | - | 0 W/m² | - |
| 1777541188 | 6.67° C | 87% | 1016.7 hPa | 0 mm | - | 0 W/m² | - |
| 1777540884 | 7.22° C | 86% | 1016.7 hPa | 0 mm | - | 0 W/m² | - |
| 1777540583 | 7.22° C | 86% | 1016.7 hPa | 0 mm | - | 0 W/m² | - |
| 1777540279 | 6.67° C | 86% | 1016.6 hPa | 0 mm | - | 0 W/m² | - |
| 1777539975 | 7.22° C | 85% | 1016.7 hPa | 0 mm | - | 0 W/m² | - |
| 1777539671 | 7.22° C | 84% | 1016.7 hPa | 0 mm | - | 0 W/m² | - |
| 1777539367 | 7.22° C | 83% | 1016.8 hPa | 0 mm | - | 0 W/m² | - |
| 1777539064 | 7.78° C | 82% | 1016.7 hPa | 0 mm | - | 0 W/m² | - |
* Rain latest hour (hover to see other rain measurements)
** Current wind speed in m/s (hover to see current wind gust speed)